| time (UTC) | temp C | wind direction | speed KPH | gust KPH | rain 1hr cm | rain 24hr cm | rain mn cm | humidity % | barometer mb |
| 20260507034018 | 15 | 0 | 0.0 | 0.0 | 0.00 | 0.00 | 0.00 | 78 | 1019.3 |
| 20260507033515 | 15 | 0 | 0.0 | 1.6 | 0.00 | 0.00 | 0.00 | 78 | 1019.3 |
| 20260507033041 | 15 | 0 | 0.0 | 1.6 | 0.00 | 0.00 | 0.00 | 78 | 1019.3 |
| 20260507032514 | 15 | 0 | 0.0 | 1.6 | 0.00 | 0.00 | 0.00 | 78 | 1019.2 |
| 20260507032016 | 15 | 0 | 0.0 | 3.2 | 0.00 | 0.00 | 0.00 | 77 | 1019.0 |
| 20260507031534 | 15 | 0 | 0.0 | 3.2 | 0.00 | 0.00 | 0.00 | 76 | 1019.0 |
| 20260507031013 | 15 | 0 | 0.0 | 3.2 | 0.00 | 0.00 | 0.00 | 76 | 1018.9 |
| 20260507030515 | 16 | 0 | 0.0 | 3.2 | 0.00 | 0.00 | 0.00 | 75 | 1018.8 |
| 20260507030037 | 16 | 0 | 0.0 | 3.2 | 0.00 | 0.00 | 0.00 | 75 | 1018.7 |
| 20260507025515 | 16 | 229 | 0.0 | 3.2 | 0.00 | 0.00 | 0.00 | 74 | 1018.7 |
| 20260507025018 | 16 | 163 | 0.0 | 3.2 | 0.00 | 0.00 | 0.00 | 74 | 1018.6 |
| 20260507024541 | 16 | 0 | 0.0 | 1.6 | 0.00 | 0.00 | 0.00 | 73 | 1018.5 |
| 20260507024013 | 16 | 0 | 0.0 | 1.6 | 0.00 | 0.00 | 0.00 | 73 | 1018.5 |
| 20260507023514 | 17 | 216 | 0.0 | 1.6 | 0.00 | 0.00 | 0.00 | 72 | 1018.4 |
| 20260507023032 | 17 | 0 | 0.0 | 4.8 | 0.00 | 0.00 | 0.00 | 72 | 1018.5 |
| 20260507022515 | 17 | 0 | 0.0 | 4.8 | 0.00 | 0.00 | 0.00 | 72 | 1018.3 |
| 20260507022015 | 17 | 0 | 0.0 | 4.8 | 0.00 | 0.00 | 0.00 | 71 | 1018.3 |
| 20260507021547 | 18 | 117 | 0.0 | 1.6 | 0.00 | 0.00 | 0.00 | 70 | 1018.4 |
| 20260507021015 | 18 | 0 | 0.0 | 1.6 | 0.00 | 0.00 | 0.00 | 70 | 1018.3 |
| 20260507020514 | 18 | 0 | 0.0 | 1.6 | 0.00 | 0.00 | 0.00 | 70 | 1018.3 |
| 20260507020034 | 18 | 0 | 0.0 | 1.6 | 0.00 | 0.00 | 0.00 | 68 | 1018.4 |
| 20260507015512 | 19 | 0 | 0.0 | 3.2 | 0.00 | 0.00 | 0.00 | 68 | 1018.5 |
| 20260507015014 | 19 | 0 | 0.0 | 3.2 | 0.00 | 0.00 | 0.00 | 68 | 1018.5 |
| 20260507014532 | 19 | 0 | 0.0 | 3.2 | 0.00 | 0.00 | 0.00 | 67 | 1018.5 |
| 20260507014017 | 19 | 226 | 0.0 | 1.6 | 0.00 | 0.00 | 0.00 | 67 | 1018.5 |
| 20260507013514 | 20 | 0 | 0.0 | 1.6 | 0.00 | 0.00 | 0.00 | 67 | 1018.5 |
| 20260507013035 | 20 | 0 | 0.0 | 1.6 | 0.00 | 0.00 | 0.00 | 66 | 1018.5 |
| 20260507012514 | 20 | 0 | 0.0 | 1.6 | 0.00 | 0.00 | 0.00 | 65 | 1018.4 |
| 20260507012016 | 20 | 210 | 0.0 | 3.2 | 0.00 | 0.00 | 0.00 | 65 | 1018.4 |
| 20260507011536 | 20 | 0 | 0.0 | 4.8 | 0.00 | 0.00 | 0.00 | 65 | 1018.4 |
| 20260507011014 | 20 | 224 | 0.0 | 4.8 | 0.00 | 0.00 | 0.00 | 65 | 1018.3 |
| 20260507010515 | 20 | 221 | 0.0 | 3.2 | 0.00 | 0.00 | 0.00 | 65 | 1018.3 |
| 20260507010041 | 21 | 0 | 0.0 | 4.8 | 0.00 | 0.00 | 0.00 | 65 | 1018.4 |
| 20260507005512 | 21 | 0 | 0.0 | 4.8 | 0.00 | 0.00 | 0.00 | 65 | 1018.3 |
| 20260507005017 | 21 | 0 | 0.0 | 1.6 | 0.00 | 0.00 | 0.00 | 65 | 1018.4 |
| 20260507004531 | 21 | 84 | 0.0 | 3.2 | 0.00 | 0.00 | 0.00 | 65 | 1018.3 |
| 20260507004014 | 21 | 0 | 0.0 | 3.2 | 0.00 | 0.00 | 0.00 | 64 | 1018.3 |
| 20260507003514 | 21 | 0 | 0.0 | 1.6 | 0.00 | 0.00 | 0.00 | 64 | 1018.4 |
| 20260507003031 | 21 | 0 | 0.0 | 1.6 | 0.00 | 0.00 | 0.00 | 63 | 1018.4 |
| 20260507002514 | 21 | 0 | 0.0 | 1.6 | 0.00 | 0.00 | 0.00 | 63 | 1018.4 |
| 20260507002015 | 21 | 232 | 0.0 | 1.6 | 0.00 | 0.00 | 0.00 | 63 | 1018.5 |
| 20260507001535 | 22 | 0 | 0.0 | 1.6 | 0.00 | 0.00 | 0.00 | 62 | 1018.5 |
| 20260507001015 | 22 | 0 | 0.0 | 1.6 | 0.00 | 0.00 | 0.00 | 62 | 1018.4 |
| 20260507000522 | 22 | 0 | 0.0 | 3.2 | 0.00 | 0.00 | 0.00 | 62 | 1018.5 |
| 20260507000035 | 22 | 121 | 0.0 | 3.2 | 0.00 | 0.00 | 0.00 | 62 | 1018.5 |
| 20260506235514 | 22 | 0 | 0.0 | 1.6 | 0.00 | 0.00 | 0.00 | 62 | 1018.6 |
| 20260506235020 | 22 | 0 | 0.0 | 4.8 | 0.00 | 0.00 | 0.00 | 62 | 1018.5 |
| 20260506234534 | 22 | 0 | 0.0 | 4.8 | 0.00 | 0.00 | 0.00 | 62 | 1018.5 |
| 20260506234013 | 22 | 200 | 0.0 | 1.6 | 0.00 | 0.00 | 0.00 | 61 | 1018.4 |
| 20260506233516 | 22 | 0 | 0.0 | 1.6 | 0.00 | 0.00 | 0.00 | 61 | 1018.4 |
| 20260506233032 | 22 | 0 | 0.0 | 1.6 | 0.00 | 0.00 | 0.00 | 62 | 1018.6 |
| 20260506232520 | 22 | 243 | 0.0 | 4.8 | 0.00 | 0.00 | 0.00 | 61 | 1018.6 |
| 20260506232015 | 22 | 224 | 0.0 | 4.8 | 0.00 | 0.00 | 0.00 | 61 | 1018.6 |
| 20260506231534 | 23 | 328 | 0.0 | 3.2 | 0.00 | 0.00 | 0.00 | 61 | 1018.6 |
| 20260506231014 | 23 | 280 | 0.0 | 3.2 | 0.00 | 0.00 | 0.00 | 60 | 1018.6 |
| 20260506230514 | 23 | 0 | 0.0 | 3.2 | 0.00 | 0.00 | 0.00 | 60 | 1018.6 |
| 20260506230034 | 23 | 227 | 0.0 | 3.2 | 0.00 | 0.00 | 0.00 | 60 | 1018.6 |
| 20260506225518 | 23 | 245 | 0.0 | 3.2 | 0.00 | 0.00 | 0.00 | 58 | 1018.7 |
| 20260506225015 | 23 | 0 | 0.0 | 3.2 | 0.00 | 0.00 | 0.00 | 59 | 1018.8 |
| 20260506224532 | 23 | 73 | 0.0 | 4.8 | 0.00 | 0.00 | 0.00 | 58 | 1018.9 |
| 20260506224016 | 23 | 223 | 0.0 | 4.8 | 0.00 | 0.00 | 0.00 | 58 | 1018.9 |
| 20260506223515 | 23 | 89 | 0.0 | 4.8 | 0.00 | 0.00 | 0.00 | 58 | 1018.9 |
| 20260506223032 | 23 | 213 | 0.0 | 6.4 | 0.00 | 0.00 | 0.00 | 57 | 1018.9 |
| 20260506222514 | 23 | 0 | 0.0 | 6.4 | 0.00 | 0.00 | 0.00 | 58 | 1018.9 |
| 20260506222016 | 23 | 62 | 0.0 | 6.4 | 0.00 | 0.00 | 0.00 | 56 | 1019.1 |
| 20260506221533 | 23 | 0 | 0.0 | 11.3 | 0.00 | 0.00 | 0.00 | 58 | 1019.1 |
| 20260506221013 | 23 | 63 | 1.6 | 11.3 | 0.00 | 0.00 | 0.00 | 57 | 1019.1 |
| 20260506220514 | 23 | 166 | 0.0 | 8.0 | 0.00 | 0.00 | 0.00 | 57 | 1019.3 |
| 20260506220036 | 23 | 54 | 1.6 | 6.4 | 0.00 | 0.00 | 0.00 | 55 | 1019.3 |
| 20260506215515 | 23 | 155 | 0.0 | 6.4 | 0.00 | 0.00 | 0.00 | 56 | 1019.3 |
| 20260506215014 | 23 | 66 | 1.6 | 4.8 | 0.00 | 0.00 | 0.00 | 55 | 1019.4 |
| 20260506214532 | 23 | 94 | 0.0 | 9.7 | 0.00 | 0.00 | 0.00 | 56 | 1019.4 |
| 20260506214015 | 23 | 0 | 1.6 | 11.3 | 0.00 | 0.00 | 0.00 | 57 | 1019.4 |
| 20260506213514 | 23 | 0 | 0.0 | 11.3 | 0.00 | 0.00 | 0.00 | 57 | 1019.5 |
| 20260506213032 | 23 | 50 | 3.2 | 11.3 | 0.00 | 0.00 | 0.00 | 56 | 1019.5 |
| 20260506212515 | 23 | 61 | 0.0 | 6.4 | 0.00 | 0.00 | 0.00 | 55 | 1019.6 |
| 20260506212020 | 23 | 55 | 0.0 | 6.4 | 0.00 | 0.00 | 0.00 | 54 | 1019.6 |
| 20260506211530 | 23 | 62 | 0.0 | 6.4 | 0.00 | 0.00 | 0.00 | 54 | 1019.7 |
| 20260506211015 | 23 | 126 | 1.6 | 8.0 | 0.00 | 0.00 | 0.00 | 55 | 1019.7 |
| 20260506210512 | 23 | 76 | 1.6 | 8.0 | 0.00 | 0.00 | 0.00 | 55 | 1019.8 |
| 20260506210037 | 23 | 0 | 0.0 | 6.4 | 0.00 | 0.00 | 0.00 | 56 | 1019.7 |
| 20260506205514 | 23 | 0 | 0.0 | 6.4 | 0.00 | 0.00 | 0.00 | 54 | 1019.9 |
| 20260506205016 | 23 | 50 | 0.0 | 6.4 | 0.00 | 0.00 | 0.00 | 53 | 1019.9 |
| 20260506204547 | 23 | 84 | 0.0 | 3.2 | 0.00 | 0.00 | 0.00 | 52 | 1020.0 |
| 20260506204017 | 23 | 0 | 0.0 | 1.6 | 0.00 | 0.00 | 0.00 | 53 | 1019.9 |
| 20260506203515 | 23 | 0 | 0.0 | 4.8 | 0.00 | 0.00 | 0.00 | 53 | 1020.1 |
| 20260506203033 | 23 | 0 | 0.0 | 6.4 | 0.00 | 0.00 | 0.00 | 53 | 1020.0 |
| 20260506202514 | 23 | 0 | 0.0 | 6.4 | 0.00 | 0.00 | 0.00 | 54 | 1020.1 |
| 20260506202014 | 23 | 71 | 1.6 | 6.4 | 0.00 | 0.00 | 0.00 | 54 | 1020.1 |
| 20260506201534 | 23 | 0 | 0.0 | 8.0 | 0.00 | 0.00 | 0.00 | 53 | 1020.2 |
| 20260506201014 | 24 | 65 | 0.0 | 8.0 | 0.00 | 0.00 | 0.00 | 54 | 1020.3 |
| 20260506200513 | 24 | 0 | 0.0 | 3.2 | 0.00 | 0.00 | 0.00 | 54 | 1020.4 |
| 20260506200035 | 23 | 65 | 0.0 | 3.2 | 0.00 | 0.00 | 0.00 | 54 | 1020.3 |
| 20260506195514 | 23 | 105 | 0.0 | 4.8 | 0.00 | 0.00 | 0.00 | 55 | 1020.4 |
| 20260506195019 | 23 | 112 | 0.0 | 4.8 | 0.00 | 0.00 | 0.00 | 56 | 1020.5 |
| 20260506194534 | 23 | 70 | 0.0 | 4.8 | 0.00 | 0.00 | 0.00 | 55 | 1020.4 |
| 20260506194014 | 23 | 0 | 0.0 | 4.8 | 0.00 | 0.00 | 0.00 | 57 | 1020.6 |
| 20260506193512 | 22 | 41 | 0.0 | 6.4 | 0.00 | 0.00 | 0.00 | 57 | 1020.7 |
| 20260506193032 | 23 | 71 | 1.6 | 6.4 | 0.00 | 0.00 | 0.00 | 56 | 1020.6 |
| 20260506192513 | 22 | 0 | 0.0 | 4.8 | 0.00 | 0.00 | 0.00 | 57 | 1020.7 |
| 20260506192014 | 22 | 0 | 0.0 | 6.4 | 0.00 | 0.00 | 0.00 | 59 | 1020.8 |
| 20260506191534 | 22 | 0 | 0.0 | 6.4 | 0.00 | 0.00 | 0.00 | 60 | 1020.8 |
| 20260506191015 | 22 | 61 | 0.0 | 6.4 | 0.00 | 0.00 | 0.00 | 60 | 1020.9 |
| 20260506190516 | 21 | 0 | 0.0 | 8.0 | 0.00 | 0.00 | 0.00 | 62 | 1020.9 |
| 20260506190033 | 20 | 62 | 1.6 | 8.0 | 0.00 | 0.00 | 0.00 | 64 | 1020.9 |
| 20260506185514 | 21 | 55 | 1.6 | 6.4 | 0.00 | 0.00 | 0.00 | 63 | 1021.0 |
| 20260506185014 | 21 | 0 | 1.6 | 9.7 | 0.00 | 0.00 | 0.00 | 64 | 1021.0 |
| 20260506184532 | 20 | 0 | 0.0 | 9.7 | 0.00 | 0.00 | 0.00 | 66 | 1021.0 |
| 20260506184014 | 20 | 49 | 0.0 | 8.0 | 0.00 | 0.00 | 0.00 | 66 | 1021.0 |
| 20260506183514 | 20 | 57 | 0.0 | 9.7 | 0.00 | 0.00 | 0.00 | 65 | 1021.0 |
| 20260506183030 | 20 | 0 | 0.0 | 9.7 | 0.00 | 0.00 | 0.00 | 66 | 1021.1 |
| 20260506182515 | 20 | 74 | 1.6 | 6.4 | 0.00 | 0.00 | 0.00 | 64 | 1021.1 |
| 20260506182016 | 20 | 59 | 0.0 | 4.8 | 0.00 | 0.00 | 0.00 | 63 | 1021.1 |
| 20260506181536 | 20 | 50 | 0.0 | 8.0 | 0.00 | 0.00 | 0.00 | 64 | 1021.2 |
| 20260506181014 | 19 | 46 | 1.6 | 8.0 | 0.00 | 0.00 | 0.00 | 67 | 1021.2 |
| 20260506180519 | 19 | 42 | 1.6 | 6.4 | 0.00 | 0.00 | 0.00 | 65 | 1021.1 |
| 20260506180032 | 20 | 49 | 3.2 | 6.4 | 0.00 | 0.00 | 0.00 | 63 | 1021.1 |
| 20260506175515 | 20 | 0 | 0.0 | 3.2 | 0.00 | 0.00 | 0.00 | 65 | 1021.1 |
| 20260506175014 | 20 | 0 | 0.0 | 8.0 | 0.00 | 0.00 | 0.00 | 65 | 1021.1 |
| 20260506174533 | 19 | 0 | 0.0 | 8.0 | 0.00 | 0.00 | 0.00 | 65 | 1021.1 |
| 20260506174017 | 19 | 0 | 0.0 | 1.6 | 0.00 | 0.00 | 0.00 | 67 | 1021.2 |
| 20260506173513 | 18 | 0 | 0.0 | 1.6 | 0.00 | 0.00 | 0.00 | 68 | 1021.3 |
| 20260506173032 | 18 | 59 | 0.0 | 4.8 | 0.00 | 0.00 | 0.00 | 68 | 1021.2 |
| 20260506172514 | 18 | 69 | 0.0 | 4.8 | 0.00 | 0.00 | 0.00 | 68 | 1021.2 |
| 20260506172014 | 18 | 0 | 0.0 | 1.6 | 0.00 | 0.00 | 0.00 | 70 | 1021.2 |
| 20260506171540 | 18 | 216 | 0.0 | 1.6 | 0.00 | 0.00 | 0.00 | 70 | 1021.3 |
| 20260506171015 | 17 | 0 | 0.0 | 1.6 | 0.00 | 0.00 | 0.00 | 71 | 1021.3 |
| 20260506170514 | 17 | 219 | 0.0 | 1.6 | 0.00 | 0.00 | 0.00 | 71 | 1021.4 |
| 20260506170035 | 17 | 0 | 0.0 | 1.6 | 0.00 | 0.00 | 0.00 | 71 | 1021.4 |
| 20260506165514 | 17 | 0 | 0.0 | 1.6 | 0.00 | 0.00 | 0.00 | 70 | 1021.3 |
| 20260506165014 | 17 | 0 | 0.0 | 1.6 | 0.00 | 0.00 | 0.00 | 72 | 1021.4 |
| 20260506164539 | 16 | 0 | 0.0 | 1.6 | 0.00 | 0.00 | 0.00 | 73 | 1021.3 |
| 20260506164014 | 16 | 0 | 0.0 | 0.0 | 0.00 | 0.00 | 0.00 | 73 | 1021.4 |
| 20260506163516 | 16 | 0 | 0.0 | 1.6 | 0.00 | 0.00 | 0.00 | 75 | 1021.3 |
| 20260506163033 | 15 | 0 | 0.0 | 3.2 | 0.00 | 0.00 | 0.00 | 76 | 1021.3 |
| 20260506162513 | 15 | 0 | 0.0 | 3.2 | 0.00 | 0.00 | 0.00 | 76 | 1021.4 |
| 20260506162015 | 15 | 53 | 0.0 | 3.2 | 0.00 | 0.00 | 0.00 | 75 | 1021.4 |
| 20260506161539 | 15 | 0 | 0.0 | 0.0 | 0.00 | 0.00 | 0.00 | 75 | 1021.4 |
| 20260506161016 | 15 | 0 | 0.0 | 0.0 | 0.00 | 0.00 | 0.00 | 76 | 1021.4 |
| 20260506160516 | 15 | 0 | 0.0 | 0.0 | 0.00 | 0.00 | 0.00 | 76 | 1021.4 |
| 20260506160042 | 15 | 0 | 0.0 | 0.0 | 0.00 | 0.00 | 0.00 | 76 | 1021.4 |
| 20260506155513 | 15 | 0 | 0.0 | 0.0 | 0.00 | 0.00 | 0.00 | 77 | 1021.4 |
| 20260506155014 | 15 | 0 | 0.0 | 0.0 | 0.00 | 0.00 | 0.00 | 76 | 1021.3 |
| 20260506154533 | 15 | 0 | 0.0 | 0.0 | 0.00 | 0.00 | 0.00 | 77 | 1021.4 |
| 20260506154016 | 15 | 0 | 0.0 | 0.0 | 0.00 | 0.00 | 0.00 | 78 | 1021.3 |
| 20260506153517 | 15 | 0 | 0.0 | 0.0 | 0.00 | 0.00 | 0.00 | 79 | 1021.3 |
| 20260506153034 | 15 | 0 | 0.0 | 0.0 | 0.00 | 0.00 | 0.00 | 79 | 1021.3 |
| 20260506152517 | 14 | 0 | 0.0 | 0.0 | 0.00 | 0.00 | 0.00 | 79 | 1021.3 |
| 20260506152017 | 14 | 0 | 0.0 | 0.0 | 0.00 | 0.00 | 0.00 | 81 | 1021.2 |
| 20260506151536 | 14 | 0 | 0.0 | 0.0 | 0.00 | 0.00 | 0.00 | 81 | 1021.3 |
| 20260506151019 | 14 | 0 | 0.0 | 0.0 | 0.00 | 0.00 | 0.00 | 81 | 1021.3 |
| 20260506150519 | 14 | 0 | 0.0 | 0.0 | 0.00 | 0.00 | 0.00 | 82 | 1021.4 |
| 20260506150034 | 13 | 0 | 0.0 | 0.0 | 0.00 | 0.00 | 0.00 | 83 | 1021.3 |
| 20260506145516 | 13 | 0 | 0.0 | 0.0 | 0.00 | 0.00 | 0.00 | 83 | 1021.3 |
| 20260506145019 | 13 | 0 | 0.0 | 0.0 | 0.00 | 0.00 | 0.00 | 83 | 1021.3 |
| 20260506144534 | 13 | 0 | 0.0 | 0.0 | 0.00 | 0.00 | 0.00 | 83 | 1021.1 |
| 20260506144025 | 13 | 0 | 0.0 | 0.0 | 0.00 | 0.00 | 0.00 | 84 | 1021.1 |
| 20260506143519 | 13 | 0 | 0.0 | 0.0 | 0.00 | 0.00 | 0.00 | 84 | 1021.1 |
| 20260506143043 | 13 | 0 | 0.0 | 0.0 | 0.00 | 0.00 | 0.00 | 85 | 1021.2 |
| 20260506142514 | 13 | 0 | 0.0 | 0.0 | 0.00 | 0.00 | 0.00 | 85 | 1021.2 |
| 20260506142014 | 13 | 0 | 0.0 | 0.0 | 0.00 | 0.00 | 0.00 | 85 | 1021.1 |
| 20260506141532 | 13 | 0 | 0.0 | 0.0 | 0.00 | 0.00 | 0.00 | 85 | 1021.0 |
| 20260506141014 | 12 | 0 | 0.0 | 1.6 | 0.00 | 0.00 | 0.00 | 85 | 1021.0 |
| 20260506140516 | 12 | 0 | 0.0 | 1.6 | 0.00 | 0.00 | 0.00 | 86 | 1020.9 |
| 20260506140036 | 12 | 0 | 0.0 | 0.0 | 0.00 | 0.00 | 0.00 | 86 | 1020.8 |
| 20260506135515 | 12 | 0 | 0.0 | 0.0 | 0.00 | 0.00 | 0.00 | 86 | 1020.8 |
| 20260506135020 | 12 | 0 | 0.0 | 0.0 | 0.00 | 0.00 | 0.00 | 87 | 1020.8 |
| 20260506134534 | 12 | 0 | 0.0 | 0.0 | 0.00 | 0.00 | 0.00 | 87 | 1020.7 |
| 20260506134017 | 12 | 0 | 0.0 | 0.0 | 0.00 | 0.00 | 0.00 | 87 | 1020.6 |
| 20260506133515 | 12 | 0 | 0.0 | 0.0 | 0.00 | 0.00 | 0.00 | 88 | 1020.6 |
| 20260506133034 | 12 | 0 | 0.0 | 0.0 | 0.00 | 0.00 | 0.00 | 88 | 1020.6 |
| 20260506132520 | 12 | 0 | 0.0 | 0.0 | 0.00 | 0.00 | 0.00 | 88 | 1020.5 |
| 20260506132016 | 12 | 0 | 0.0 | 0.0 | 0.00 | 0.00 | 0.00 | 88 | 1020.5 |
| 20260506131533 | 12 | 0 | 0.0 | 0.0 | 0.00 | 0.00 | 0.00 | 88 | 1020.5 |
| 20260506131017 | 12 | 0 | 0.0 | 0.0 | 0.00 | 0.00 | 0.00 | 89 | 1020.5 |
| 20260506130519 | 12 | 0 | 0.0 | 0.0 | 0.00 | 0.00 | 0.00 | 89 | 1020.5 |
| 20260506130033 | 11 | 0 | 0.0 | 0.0 | 0.00 | 0.00 | 0.00 | 89 | 1020.6 |
| 20260506125516 | 11 | 0 | 0.0 | 0.0 | 0.00 | 0.00 | 0.00 | 90 | 1020.4 |
| 20260506125018 | 11 | 0 | 0.0 | 0.0 | 0.00 | 0.00 | 0.00 | 90 | 1020.4 |
| 20260506124531 | 11 | 0 | 0.0 | 0.0 | 0.00 | 0.00 | 0.00 | 91 | 1020.3 |
| 20260506124015 | 11 | 0 | 0.0 | 0.0 | 0.00 | 0.00 | 0.00 | 91 | 1020.4 |
| 20260506123511 | 11 | 0 | 0.0 | 0.0 | 0.00 | 0.00 | 0.00 | 91 | 1020.3 |
| 20260506123030 | 11 | 0 | 0.0 | 0.0 | 0.00 | 0.00 | 0.00 | 91 | 1020.4 |
| 20260506122514 | 11 | 0 | 0.0 | 0.0 | 0.00 | 0.00 | 0.00 | 91 | 1020.3 |
| 20260506122014 | 11 | 0 | 0.0 | 0.0 | 0.00 | 0.00 | 0.00 | 91 | 1020.3 |
| 20260506121530 | 11 | 0 | 0.0 | 0.0 | 0.00 | 0.00 | 0.00 | 91 | 1020.3 |
| 20260506121015 | 11 | 0 | 0.0 | 0.0 | 0.00 | 0.00 | 0.00 | 91 | 1020.3 |
| 20260506120518 | 11 | 0 | 0.0 | 0.0 | 0.00 | 0.00 | 0.00 | 91 | 1020.3 |
| 20260506120033 | 11 | 0 | 0.0 | 0.0 | 0.00 | 0.00 | 0.00 | 90 | 1020.1 |
| 20260506115515 | 11 | 0 | 0.0 | 0.0 | 0.00 | 0.03 | 0.00 | 90 | 1020.2 |
| 20260506115012 | 11 | 0 | 0.0 | 0.0 | 0.00 | 0.03 | 0.00 | 90 | 1020.1 |
| 20260506114541 | 11 | 0 | 0.0 | 0.0 | 0.00 | 0.03 | 0.00 | 90 | 1020.1 |
| 20260506114014 | 11 | 0 | 0.0 | 0.0 | 0.00 | 0.03 | 0.00 | 90 | 1020.0 |
| 20260506113515 | 11 | 0 | 0.0 | 0.0 | 0.00 | 0.03 | 0.00 | 90 | 1019.9 |
| 20260506113032 | 11 | 0 | 0.0 | 0.0 | 0.00 | 0.03 | 0.00 | 89 | 1019.9 |
| 20260506112512 | 11 | 0 | 0.0 | 0.0 | 0.00 | 0.03 | 0.00 | 89 | 1019.9 |
| 20260506112015 | 11 | 0 | 0.0 | 0.0 | 0.00 | 0.03 | 0.00 | 89 | 1019.8 |
| 20260506111534 | 11 | 0 | 0.0 | 0.0 | 0.00 | 0.03 | 0.00 | 89 | 1020.0 |
| 20260506111012 | 11 | 0 | 0.0 | 0.0 | 0.00 | 0.03 | 0.00 | 89 | 1019.9 |
| 20260506110520 | 11 | 0 | 0.0 | 0.0 | 0.00 | 0.03 | 0.00 | 89 | 1019.8 |
| 20260506110035 | 11 | 0 | 0.0 | 0.0 | 0.00 | 0.03 | 0.00 | 88 | 1019.8 |
| 20260506105515 | 11 | 0 | 0.0 | 0.0 | 0.00 | 0.05 | 0.00 | 88 | 1019.8 |
| 20260506105013 | 11 | 0 | 0.0 | 0.0 | 0.00 | 0.05 | 0.00 | 88 | 1019.8 |
| 20260506104533 | 11 | 0 | 0.0 | 0.0 | 0.00 | 0.05 | 0.00 | 88 | 1019.8 |
| 20260506104013 | 12 | 0 | 0.0 | 0.0 | 0.00 | 0.05 | 0.00 | 88 | 1019.7 |
| 20260506103514 | 12 | 0 | 0.0 | 0.0 | 0.00 | 0.05 | 0.00 | 88 | 1019.7 |
| 20260506103030 | 12 | 0 | 0.0 | 0.0 | 0.00 | 0.05 | 0.00 | 87 | 1019.8 |
| 20260506102514 | 12 | 0 | 0.0 | 0.0 | 0.00 | 0.05 | 0.00 | 87 | 1019.8 |
| 20260506102013 | 12 | 0 | 0.0 | 0.0 | 0.00 | 0.05 | 0.00 | 87 | 1019.6 |
| 20260506101547 | 12 | 0 | 0.0 | 0.0 | 0.00 | 0.05 | 0.00 | 86 | 1019.6 |
| 20260506101015 | 12 | 0 | 0.0 | 0.0 | 0.00 | 0.05 | 0.00 | 86 | 1019.7 |
| 20260506100515 | 12 | 0 | 0.0 | 0.0 | 0.00 | 0.05 | 0.00 | 85 | 1019.7 |
| 20260506100032 | 12 | 0 | 0.0 | 0.0 | 0.00 | 0.05 | 0.00 | 85 | 1019.7 |
| 20260506095512 | 12 | 0 | 0.0 | 0.0 | 0.00 | 0.05 | 0.00 | 85 | 1019.7 |
| 20260506095013 | 13 | 0 | 0.0 | 0.0 | 0.00 | 0.05 | 0.00 | 85 | 1019.6 |
| 20260506094540 | 13 | 0 | 0.0 | 0.0 | 0.00 | 0.05 | 0.00 | 85 | 1019.7 |
| 20260506094013 | 13 | 0 | 0.0 | 0.0 | 0.00 | 0.05 | 0.00 | 84 | 1019.7 |
| 20260506093515 | 13 | 0 | 0.0 | 0.0 | 0.00 | 0.05 | 0.00 | 84 | 1019.7 |
| 20260506093032 | 13 | 0 | 0.0 | 0.0 | 0.00 | 0.05 | 0.00 | 84 | 1019.7 |
| 20260506092513 | 13 | 0 | 0.0 | 0.0 | 0.00 | 0.05 | 0.00 | 84 | 1019.7 |
| 20260506092019 | 13 | 0 | 0.0 | 0.0 | 0.00 | 0.05 | 0.00 | 84 | 1019.6 |
| 20260506091530 | 13 | 0 | 0.0 | 0.0 | 0.00 | 0.05 | 0.00 | 83 | 1019.6 |
| 20260506091014 | 13 | 0 | 0.0 | 0.0 | 0.00 | 0.05 | 0.00 | 83 | 1019.6 |
| 20260506090515 | 13 | 0 | 0.0 | 0.0 | 0.00 | 0.05 | 0.00 | 83 | 1019.6 |
| 20260506090036 | 13 | 0 | 0.0 | 0.0 | 0.00 | 0.05 | 0.00 | 83 | 1019.7 |
| 20260506085513 | 13 | 0 | 0.0 | 0.0 | 0.00 | 0.05 | 0.00 | 83 | 1019.6 |
| 20260506085014 | 13 | 0 | 0.0 | 0.0 | 0.00 | 0.05 | 0.00 | 83 | 1019.6 |
| 20260506084533 | 13 | 0 | 0.0 | 1.6 | 0.00 | 0.05 | 0.00 | 83 | 1019.6 |
| 20260506084013 | 13 | 0 | 0.0 | 1.6 | 0.00 | 0.05 | 0.00 | 83 | 1019.6 |
| 20260506083512 | 13 | 76 | 0.0 | 0.0 | 0.00 | 0.05 | 0.00 | 83 | 1019.6 |
| 20260506083032 | 13 | 0 | 0.0 | 0.0 | 0.00 | 0.05 | 0.00 | 83 | 1019.7 |
| 20260506082512 | 13 | 0 | 0.0 | 1.6 | 0.00 | 0.05 | 0.00 | 83 | 1019.6 |
| 20260506082018 | 13 | 0 | 0.0 | 1.6 | 0.00 | 0.05 | 0.00 | 83 | 1019.7 |
| 20260506081531 | 13 | 0 | 0.0 | 1.6 | 0.00 | 0.05 | 0.00 | 83 | 1019.7 |
| 20260506081018 | 13 | 0 | 0.0 | 0.0 | 0.00 | 0.05 | 0.00 | 83 | 1019.7 |
| 20260506080516 | 13 | 0 | 0.0 | 0.0 | 0.00 | 0.05 | 0.00 | 83 | 1019.6 |
| 20260506073513 | 13 | 0 | 0.0 | 0.0 | 0.00 | 0.05 | 0.00 | 82 | 1019.4 |
| 20260506073030 | 13 | 0 | 0.0 | 0.0 | 0.00 | 0.05 | 0.00 | 82 | 1019.4 |
| 20260506072517 | 13 | 0 | 0.0 | 0.0 | 0.00 | 0.05 | 0.00 | 82 | 1019.4 |
| 20260506072012 | 13 | 0 | 0.0 | 0.0 | 0.00 | 0.05 | 0.00 | 82 | 1019.4 |
| 20260506071530 | 13 | 0 | 0.0 | 0.0 | 0.00 | 0.05 | 0.00 | 81 | 1019.4 |
| 20260506071013 | 13 | 0 | 0.0 | 0.0 | 0.00 | 0.05 | 0.00 | 81 | 1019.4 |
| 20260506070513 | 13 | 0 | 0.0 | 1.6 | 0.00 | 0.05 | 0.00 | 80 | 1019.2 |
| 20260506062017 | 14 | 0 | 0.0 | 0.0 | 0.00 | 0.05 | 0.05 | 79 | 1019.1 |
| 20260506061535 | 14 | 0 | 0.0 | 0.0 | 0.00 | 0.05 | 0.05 | 78 | 1019.0 |
| 20260506061019 | 13 | 0 | 0.0 | 0.0 | 0.00 | 0.05 | 0.05 | 78 | 1019.0 |
| 20260506060514 | 14 | 0 | 0.0 | 0.0 | 0.00 | 0.05 | 0.05 | 78 | 1018.9 |
| 20260506051017 | 14 | 0 | 0.0 | 1.6 | 0.00 | 0.05 | 0.05 | 78 | 1018.6 |
| 20260506050521 | 14 | 0 | 0.0 | 0.0 | 0.00 | 0.05 | 0.05 | 78 | 1018.4 |
| 20260506045014 | 14 | 0 | 0.0 | 4.8 | 0.00 | 0.05 | 0.05 | 77 | 1018.2 |
| 20260506044535 | 14 | 221 | 0.0 | 4.8 | 0.00 | 0.05 | 0.05 | 77 | 1018.1 |
| 20260506044021 | 14 | 0 | 0.0 | 1.6 | 0.00 | 0.05 | 0.05 | 78 | 1018.2 |
| 20260506043513 | 14 | 0 | 0.0 | 4.8 | 0.00 | 0.05 | 0.05 | 78 | 1018.1 |
| 20260506043034 | 14 | 0 | 0.0 | 4.8 | 0.00 | 0.05 | 0.05 | 78 | 1018.1 |
| 20260506042515 | 14 | 225 | 0.0 | 3.2 | 0.00 | 0.05 | 0.05 | 78 | 1018.0 |
| 20260506042022 | 14 | 201 | 0.0 | 4.8 | 0.00 | 0.05 | 0.05 | 78 | 1017.9 |
| 20260506041542 | 14 | 0 | 0.0 | 6.4 | 0.00 | 0.05 | 0.05 | 78 | 1017.9 |
| 20260506041017 | 14 | 222 | 0.0 | 6.4 | 0.00 | 0.05 | 0.05 | 77 | 1017.9 |
| 20260506040522 | 14 | 0 | 0.0 | 6.4 | 0.00 | 0.05 | 0.05 | 77 | 1017.7 |
| 20260506040031 | 14 | 0 | 0.0 | 1.6 | 0.00 | 0.05 | 0.05 | 77 | 1017.6 |
| 20260506035513 | 14 | 0 | 0.0 | 8.0 | 0.00 | 0.05 | 0.05 | 77 | 1017.7 |
| 20260506035016 | 14 | 219 | 0.0 | 8.0 | 0.00 | 0.05 | 0.05 | 78 | 1017.6 |
| 20260506034531 | 14 | 201 | 1.6 | 8.0 | 0.00 | 0.05 | 0.05 | 77 | 1017.5 |